FENGYUN 1C DEB, 30905

Orbit data source: Space-Track

FENGYUN 1C DEB, 30905 is space debris in SSO originally from a launch on Mon, 10 May 1999 UTC launched from the Taiyaun Space Center, China (TSC). Fengyun 1C debris stems from the Chinese weather satellite Fengyun-1C, which was intentionally destroyed by a Chinese anti-satellite missile in 2007. This event dramatically increased the amount of space debris, with thousands of trackable fragments posing hazards to satellites and human spaceflight. The Fengyun 1C debris cloud has become a focal point in discussions about space sustainability and the need for international regulations to prevent the creation of new debris.

Loading next visibility...
Identifier
30905, 1999-025AYT
Orbit
SSO
Country
Flag of CNCN / PRC
Related business
Manufacturer
Unknown
Mission
Spacecraft
Bus & Motor
Unknown
Mass
Unknown
Launch date (UTC)
1999-05-10 (27 years ago)
Launch vehicle
Unknown
Launch site
Taiyaun Space Center, China (TSC)
Object type
Payload
Rocket body
Debris
Shape & HBR
Unknown shape, 0.1 m
Radar Cross Section
Small (<0.1 m²)

Expand to show TLE details & history
Last TLE update: 1 day ago

TLE from 1 day ago
0 FENGYUN 1C DEB
1 30905U 99025AYT 26163.98105850  .00002881  00000-0  13830-2 0  9992
2 30905  98.8800 244.5753 0051712 278.6883  80.8437 14.19011507987069
Epoch: 2026-06-12T23:32Z
TLE epoch observation values (Epoch: 2026-06-12T23:32:43.454Z)
Latitude
Longitude
-9.90847°
Altitude
825.862 km
Speed
7.443 km/s
True Right ascension
16h 18m 18s
True Declination
0° 00' 00"
Sunlit
Object was in full shadow at epoch
Visualization orbit readout
Latitude
Unknown
Longitude
Unknown
Altitude
Unknown
Speed
Unknown
Apparent Right ascension
Unknown
Apparent Declination
Unknown
Sunlit
N/A
Visualization observer readout
Local Sidereal Time
15:40:37
Azimuth
Unknown
Elevation
Unknown
Doppler factor
Unknown
Orbital elements
Apogee altitude
863.119 km
Perigee altitude
788.612 km
Semi-major axis
7,204.003 km
Eccentricity
0.00517
Inclination
98.88°
RAAN
244.5753°
Arg. of periapsis
278.6883°
True anomaly
81.42932°
Mean anomaly
80.8437°
Eccentric anomaly
81.13645°
Mean motion
3.54962 °/min
Orbital period
101.42 mins
BSTAR
0.001383
Loading maneuver chart data...
Computing Atmospheric mass density...

Documentation

Showing up to 5 results
|